Location: Newark
(46.7000°N, 60.6000°W)
Time: 11:54:15
(UTC+00:00)

A-11 Canister half - Pass Details

Date: 04 November 2020
Orbit: 1525 x 1684 km, 47.3° (Epoch: 01 December)

Event Time Altitude Azimuth Distance (km) Brightness Sun altitude
Rises 13:38:11 0° 167° (SSE) 4,858 12.9 21.4°
Reaches altitude 10° 13:44:58 10° 135° (SE) 3,835 12.9 22.0°
Maximum altitude 13:47:05 11° 122° (ESE) 3,752 12.3 22.2°
Drops below altitude 10° 13:49:12 10° 109° (ESE) 3,811 12.0 22.4°
Sets 13:55:47 0° 77° (ENE) 4,758 11.8 22.9°
